This demonstration page uses our WeatherBlox Daily Observations layout. Learn more.

Left ArrowRight Arrow

40.97296, -117.73568

Hourly Observations for May 24, 2022

Temp ( °F °C ) Dew Point ( °F °C ) Humidity (%) Winds ( mph kmh ) Pressure ( in mb ) Visibility ( mi km ) Precip ( " mm )
12:56 am 00:56 Clear 39 3.9 21 -6.1 48 48 S 7 11 29.96 1015 10 16 0.00 0.00
1:56 am 01:56 Clear 36 2.2 21 -6.1 55 55 S 5 7 29.97 1015 10 16 0.00 0.00
2:56 am 02:56 Clear 39 3.9 23 -5 53 53 Calm 29.97 1015 10 16 0.00 0.00
3:56 am 03:56 Clear 37 2.8 21 -6.1 52 52 Calm 29.97 1015 10 16 0.00 0.00
4:56 am 04:56 Clear 33 0.6 23 -5 66 66 SSE 6 9 29.99 1016 10 16 0.00 0.00
5:56 am 05:56 Sunny 41 5 24 -4.4 51 51 Calm 29.97 1015 10 16 0.00 0.00
6:56 am 06:56 Sunny 49 9.4 28 -2.2 44 44 Calm 29.97 1015 10 16 0.00 0.00
7:56 am 07:56 Sunny 59 15 31 -0.6 35 35 WNW 9 15 29.97 1015 10 16 0.00 0.00
8:56 am 08:56 Sunny 63 17.2 32 0 31 31 NW 16 26 30.00 1016 10 16 0.00 0.00
9:56 am 09:56 Sunny 67 19.4 32 0 27 27 NW 12 19 30.00 1016 10 16 0.00 0.00
10:56 am 10:56 Sunny 69 20.6 30 -1.1 23 23 VRB 7 11 30.00 1016 10 16 0.00 0.00
11:56 am 11:56 Sunny 72 22.2 29 -1.7 20 20 ENE 5 7 29.98 1015 10 16 0.00 0.00
12:56 pm 12:56 Sunny 74 23.3 22 -5.6 14 14 VRB 6 9 29.97 1015 10 16 0.00 0.00
1:56 pm 13:56 Sunny 74 23.3 20 -6.7 13 13 undefined N/A 29.98 1015 10 16 0.00 0.00
2:56 pm 14:56 Sunny 77 25 24 -4.4 14 14 NW 13 20 29.96 1014 10 16 0.00 0.00
3:56 pm 15:56 Sunny 78 25.6 20 -6.7 11 11 N 10 17 29.94 1014 10 16 0.00 0.00
4:56 pm 16:56 Sunny 78 25.6 21 -6.1 12 12 NW 10 17 29.95 1014 10 16 0.00 0.00
5:56 pm 17:56 Sunny 78 25.6 23 -5 13 13 N 12 19 29.93 1013 10 16 0.00 0.00
6:56 pm 18:56 Sunny 76 24.4 24 -4.4 14 14 NNW 8 13 29.91 1013 10 16 0.00 0.00
7:56 pm 19:56 Sunny 72 22.2 25 -3.9 17 17 NNE 7 11 29.91 1013 10 16 0.00 0.00
8:56 pm 20:56 Clear 58 14.4 26 -3.3 29 29 SE 3 6 29.94 1014 10 16 0.00 0.00
9:56 pm 21:56 Clear 51 10.6 24 -4.4 35 35 WSW 6 9 29.97 1015 10 16 0.00 0.00
10:56 pm 22:56 Clear 48 9 N/A N/A SSE 3 6 29.98 1015 10 16 0.00 0.00
11:56 pm 23:56 Clear 48 9 N/A N/A SE 5 7 29.97 1015 10 16 0.00 0.00

Powered by AerisWeather